Regional Weather Roundup
Issued by NWS Cleveland, OH

Home | Current Version | Previous Version | Graphics & Text | Print | Product List | Glossary On
Versions: 1 2 3 4 5 6 7 8 9 10 11 12 13 14 15 16 17 18 19 20 21 22 23 24 25 26 27 28 29 30 31 32 33 34 35 36 37 38 39 40 41 42 43 44 45 46 47 48 49 50
674
ASUS41 KCLE 111912
RWRCLE
OHIO REGIONAL WEATHER ROUNDUP
NATIONAL WEATHER SERVICE WILMINGTON, OH
200 PM EST THU FEB 11 2016

NOTE: "FAIR" INDICATES FEW OR NO CLOUDS BELOW 12,000 FEET WITH NO
SIGNIFICANT WEATHER AND/OR OBSTRUCTIONS TO VISIBILITY.

OHZ001>008-015>018-024>027-034-035-043-044-112000-
   NORTHWEST OHIO

CITY           SKY/WX    TMP DP  RH WIND       PRES   REMARKS
DEFIANCE       PTSUNNY   22   9  57 NW9       30.25F WCI  12
FINDLAY        LGT SNOW  20   8  60 W10       30.22F WCI   9
TOLEDO EXPRESS CLOUDY    20   3  48 W14       30.23S WCI   7
TOLEDO EXEC    CLOUDY    22   2  42 W16G22    30.24S WCI   8
LIMA           CLOUDY    19   7  59 NW10      30.22F WCI   7
$$

OHZ009>014-019>023-028>033-038-089-112000-
   NORTHEAST OHIO

CITY           SKY/WX    TMP DP  RH WIND       PRES   REMARKS
CLE-HOPKINS    SNOW      16  10  77 W13       30.22S VSB 1/2 WCI   2
CLE-LAKEFRONT  PTSUNNY   20   6  55 W20G28    30.19F WCI   4
CUY CO. ARPT   LGT SNOW  18   7  62 W12G21    30.18S WCI   5
LORAIN-ELYRIA  LGT SNOW  16  10  77 NW7       30.21S VSB 1   WCI   6
ASHTABULA      CLOUDY    16   2  54 NW18G30   30.14S WCI   0
AKRON-CANTON   PTSUNNY   17   2  51 W16       30.15S WCI   2
WOOSTER        PTSUNNY   17   4  56 W17G28    30.18S WCI   1
MANSFIELD      CLOUDY    17   1  49 W14G22    30.17F WCI   3
YOUNGSTOWN     LGT SNOW  17   9  70 NW15G23   30.12S BLWGSNOWWCI   2
$$

OHZ042-051>053-060>062-070>072-077>081-112000-
  SOUTHWEST OHIO

CITY           SKY/WX    TMP DP  RH WIND       PRES   REMARKS
CINC-COVINGTON FAIR      22   5  48 VRB3      30.26F
CINC-LUNKEN    PTSUNNY   23   8  52 VRB6      30.30F WCI  16
HAMILTON       FAIR      23   4  44 W6        30.29F WCI  16
DAYTON         PTSUNNY   21   7  54 W13       30.24F WCI   9
WRIGHT-PAT AFB PTSUNNY   22   5  48 W7        30.24F WCI  13
DAYTON GENERAL FAIR      22   4  46 W8        30.24F WCI  12
WILMINGTON     CLOUDY    21   6  52 W9        30.23F WCI  11
$$

OHZ036-037-039>041-045>050-054>059-063>069-073>076-082>088-112000-
  CENTRAL AND SOUTHEAST OHIO

CITY           SKY/WX    TMP DP  RH WIND       PRES   REMARKS
COLUMBUS       CLOUDY    20   5  52 W12       30.23F WCI   8
OSU AIRPORT    CLOUDY    19   8  62 NW12      30.22F WCI   7
BOLTON FIELD   CLOUDY    19   7  58 NW10      30.24S WCI   8
RICKENBACK AFB CLOUDY    20   6  54 NW13      30.24S WCI   7
NEWARK         FAIR      20   5  52 W9        30.21F WCI   9
MARION         CLOUDY    20   4  50 NW15G21   30.22S WCI   6
LANCASTER      LGT SNOW  20  10  65 W8        30.24F WCI  10
ZANESVILLE     CLOUDY    21   4  47 W9        30.21F WCI  11
NEW PHILLY     PTSUNNY   18   4  54 W9G21     30.21S WCI   7
$$




USA.gov is the U.S. government's official web portal to all federal, state and local government web resources and services.